Location: Asheville, NC
(35.6000°N, 82.5500°W)
Time: 03:04:44
(UTC-04:00)

FO-29 - Pass Details

Date: 09 January 2018
Orbit: 801 x 1321 km, 98.5° (Epoch: 21 April)

Event Time Altitude Azimuth Distance (km) Brightness Sun altitude
Rises 06:22:51 0° 118° (ESE) 4,229 14.5 -15.4°
Reaches altitude 10° 06:26:40 10° 100° (E) 3,198 13.6 -14.7°
Maximum altitude 06:31:04 17° 63° (ENE) 2,593 12.3 -13.8°
Drops below altitude 10° 06:35:15 10° 25° (NNE) 3,004 12.1 -13.0°
Sets 06:38:40 0° 7° (N) 3,869 12.5 -12.4°
